[[{"header":{"parameterUnit":"m.s-1","parameterCategory":1,"la1":30.2991,"la2":30.254,"lo1":-89.0895,"lo2":-89.0444,"dy":0.0017,"dx":0.0017,"nx":28,"ny":28,"refTime":"2024-04-24T03:00:00:Z","depth":0,"parameterNumber":2,"parameterNumberName":"U-component_of_WINDS"},"data":[0,0,0,0,0,0,0,0,0,0,0,0,0,0,0,0,0,0,0,0,0,0,0,0,0,0,0,0,0,0,0,0,0,0,0,0,0,0,0,0,0,0,0,0,0,0,0,0,0,0,0,0,0,0,0,0,0,0,-0.4482,-0.4481,0,-0.4377,-0.4376,-0.4375,-0.4298,-0.4298,-0.4297,-0.4296,-0.4187,-0.4184,-0.4182,0,0,0,0,0,0,0,0,0,0,0,0,0,-0.4617,-0.4614,-0.4482,-0.4481,-0.448,-0.4377,-0.4376,-0.4374,-0.4298,-0.4298,-0.4297,-0.4296,-0.4187,-0.4185,-0.4182,0,0,0,0,0,0,0,0,0,0,0,0,0,-0.4539,-0.4614,-0.4482,-0.4429,-0.4424,-0.4377,-0.4376,-0.4374,-0.4298,-0.4297,-0.4297,-0.4296,-0.4188,-0.4185,-0.4182,-0.4179,0,0,-0.4171,-0.4169,0,0,0,0,0,0,0,0,-0.4544,-0.4535,-0.4438,-0.4433,-0.4426,-0.435,-0.4383,-0.4308,-0.4299,-0.4346,-0.4296,-0.4295,-0.4242,-0.4234,-0.4216,-0.4174,-0.4169,-0.4171,-0.4168,-0.4167,-0.4166,0,0,0,0,0,0,0,-0.4549,-0.4539,-0.444,-0.4437,-0.443,-0.4411,-0.4399,-0.4368,-0.43,-0.4342,-0.4336,-0.4325,-0.4238,-0.422,-0.4213,-0.4168,-0.4171,-0.4168,-0.4165,-0.4164,-0.4119,-0.412,0,0,0,0,0,0,-0.4563,-0.4544,-0.4444,-0.4437,-0.4484,-0.4409,-0.4395,-0.4375,-0.43,-0.4288,-0.4326,-0.4321,-0.4226,-0.4217,-0.4209,-0.4201,-0.4167,-0.4164,-0.4162,-0.4118,-0.412,-0.4121,0,0,0,0,0,0,-0.4566,-0.4555,-0.4448,-0.4489,-0.4474,-0.4408,-0.4386,-0.4374,-0.4355,-0.4288,-0.4276,-0.4319,-0.4225,-0.4214,-0.4187,-0.4197,-0.4162,-0.4159,-0.4117,-0.4119,-0.412,-0.4187,0,0,0,0,0,0,-0.4571,-0.4557,-0.4555,-0.4489,-0.4472,-0.4429,-0.4386,-0.4372,-0.4349,-0.4343,-0.4279,-0.4267,-0.4223,-0.4193,-0.4184,-0.4191,-0.4156,-0.4116,-0.4118,-0.412,-0.4184,-0.419,-0.4196,0,0,0,0,0,-0.4576,-0.4578,-0.4555,-0.4544,-0.4469,-0.443,-0.442,-0.4369,-0.4351,-0.4348,-0.4306,-0.4269,-0.4197,-0.4191,-0.418,-0.4186,-0.4115,-0.4118,-0.412,-0.4181,-0.4189,-0.4196,0,0,0,0,0,0,-0.4645,-0.4568,-0.4542,-0.4523,-0.4484,-0.4417,-0.4413,-0.438,-0.4344,-0.4339,-0.4278,-0.4264,-0.4245,-0.4213,-0.4207,-0.4181,-0.4152,-0.4152,-0.4202,-0.4209,-0.4216,-0.4224,-0.4153,0,0,0,0,0,-0.4658,-0.4633,-0.4567,-0.4557,-0.4538,-0.4479,-0.446,-0.4425,-0.4381,-0.4364,-0.4319,-0.4278,-0.4246,-0.4226,-0.4193,-0.4179,-0.4164,-0.4178,-0.4184,-0.419,-0.419,-0.4182,-0.4187,-0.4127,-0.4127,-0.4127,0,0,-0.4685,-0.464,-0.4628,-0.4569,-0.4535,-0.451,-0.4465,-0.4441,-0.4422,-0.436,-0.4333,-0.4299,-0.4248,-0.4229,-0.4218,-0.4202,-0.4204,-0.4192,-0.4197,-0.4195,-0.4184,-0.419,-0.4195,-0.4129,-0.4128,-0.4128,0,0,-0.4721,-0.4685,-0.4672,-0.4639,-0.4587,-0.4548,-0.4545,-0.4483,-0.4459,-0.4431,-0.4384,-0.4361,-0.4306,-0.4273,-0.4249,-0.4274,-0.424,-0.4265,-0.4298,-0.429,-0.4295,-0.4299,-0.4308,-0.4312,-0.4266,-0.4266,-0.4266,0,-0.4761,-0.4722,-0.467,-0.4649,-0.4625,-0.4568,-0.4555,-0.4525,-0.4465,-0.445,-0.4433,-0.4365,-0.4327,-0.4299,-0.4306,-0.4288,-0.4283,-0.4272,-0.4299,-0.4302,-0.4305,-0.4313,-0.4317,-0.427,-0.4269,-0.4269,-0.4269,0,-0.4774,-0.4748,-0.4744,-0.4689,-0.4664,-0.4647,-0.4592,-0.4574,-0.4541,-0.4504,-0.4477,-0.443,-0.4387,-0.4377,-0.4345,-0.4345,-0.4337,-0.431,-0.428,-0.4315,-0.4322,-0.4324,-0.4275,-0.4273,-0.4272,-0.4271,0,0,-0.485,-0.4767,-0.4766,-0.4741,-0.468,-0.4659,-0.464,-0.4598,-0.4584,-0.4545,-0.4527,-0.4484,-0.4459,-0.4432,-0.4395,-0.4389,-0.4413,-0.4362,-0.436,-0.4374,-0.4411,-0.4432,-0.4436,-0.439,-0.439,-0.439,-0.4415,0,-0.4877,-0.484,-0.4793,-0.4771,-0.4747,-0.4694,-0.4677,-0.4639,-0.4604,-0.4578,-0.4539,-0.451,-0.4479,-0.4462,-0.4453,-0.4412,-0.4419,-0.4409,-0.4373,-0.4372,-0.4387,-0.444,-0.4461,-0.4487,-0.4418,-0.4418,-0.4418,0,-0.4903,-0.4868,-0.4845,-0.4788,-0.4775,-0.4761,-0.472,-0.4696,-0.4651,-0.4626,-0.4597,-0.4558,-0.4535,-0.4509,-0.4477,-0.4471,-0.4454,-0.4431,-0.4431,-0.4426,-0.4397,-0.4436,-0.4494,-0.4498,-0.4422,-0.4422,-0.4421,0,-0.4962,-0.4909,-0.4888,-0.4868,-0.48,-0.4791,-0.4763,-0.4717,-0.4696,-0.466,-0.4645,-0.4607,-0.4586,-0.4557,-0.4509,-0.4494,-0.4483,-0.4452,-0.4461,-0.4463,-0.4461,-0.4462,-0.4517,-0.445,-0.445,-0.445,-0.445,0,-0.4997,-0.4985,-0.4913,-0.4901,-0.4886,-0.4832,-0.4819,-0.4785,-0.4745,-0.4725,-0.4677,-0.4659,-0.4596,-0.4571,-0.4534,-0.4513,-0.4504,-0.4483,-0.4474,-0.4488,-0.4491,-0.4475,-0.4472,-0.4451,-0.445,-0.445,-0.445,0,-0.506,-0.5011,-0.4985,-0.4924,-0.4908,-0.49,-0.4847,-0.4833,-0.4796,-0.4771,-0.4763,-0.4704,-0.4672,-0.4622,-0.4575,-0.4549,-0.4536,-0.4519,-0.4551,-0.4545,-0.4558,-0.4558,-0.4605,-0.4609,-0.454,-0.4541,-0.4541,0,-0.5085,-0.5075,-0.5013,-0.4996,-0.497,-0.4943,-0.4922,-0.4868,-0.4847,-0.4796,-0.4789,-0.4753,-0.4722,-0.4674,-0.4627,-0.4591,-0.4573,-0.4593,-0.4568,-0.4583,-0.4574,-0.4576,-0.4575,-0.4599,-0.46,-0.46,-0.4601,0,-0.5136,-0.5113,-0.5084,-0.5046,-0.5022,-0.499,-0.4955,-0.4944,-0.4883,-0.4862,-0.483,-0.4806,-0.4759,-0.4724,-0.4682,-0.4652,-0.4617,-0.461,-0.461,-0.4624,-0.4644,-0.4634,-0.4567,-0.4609,-0.4608,-0.4607,-0.4607,-0.4607,-0.5181,-0.517,-0.5125,-0.5094,-0.5063,-0.5032,-0.5016,-0.4977,-0.4949,-0.4907,-0.4877,-0.4847,-0.4803,-0.4743,-0.4715,-0.469,-0.4675,-0.4675,-0.4675,-0.4676,-0.4682,-0.4648,-0.4682,-0.4682,-0.4682,-0.4682,-0.4681,0,-0.523,-0.5199,-0.5171,-0.5125,-0.51,-0.507,-0.503,-0.5012,-0.4986,-0.4948,-0.4919,-0.4882,-0.4849,-0.4801,-0.4764,-0.4753,-0.4736,-0.4746,-0.4746,-0.474,-0.4698,-0.4701,-0.476,-0.476,-0.476,-0.476,-0.476,-0.476,-0.5253,-0.5232,-0.5204,-0.5168,-0.5136,-0.5106,-0.5087,-0.5058,-0.5028,-0.4989,-0.4961,-0.493,-0.4888,-0.4848,-0.4817,-0.4803,-0.4792,-0.4806,-0.4788,-0.475,-0.4742,-0.4736,-0.4739,-0.4804,-0.4804,-0.4832,-0.4832,-0.4833]},{"header":{"parameterUnit":"m.s-1","parameterCategory":1,"la1":30.2991,"la2":30.254,"lo1":-89.0895,"lo2":-89.0444,"dy":0.0017,"dx":0.0017,"nx":28,"ny":28,"refTime":"2024-04-24T03:00:00:Z","depth":0,"parameterNumber":3,"parameterNumberName":"V-component_of_WINDS"},"data":[0,0,0,0,0,0,0,0,0,0,0,0,0,0,0,0,0,0,0,0,0,0,0,0,0,0,0,0,0,0,0,0,0,0,0,0,0,0,0,0,0,0,0,0,0,0,0,0,0,0,0,0,0,0,0,0,0,0,2.8062,2.8061,0,2.8028,2.8027,2.8027,2.8073,2.8075,2.8076,2.8078,2.8036,2.8034,2.8031,0,0,0,0,0,0,0,0,0,0,0,0,0,2.816,2.8157,2.8062,2.8061,2.8061,2.8028,2.8027,2.8027,2.8073,2.8075,2.8077,2.8078,2.8037,2.8034,2.8031,0,0,0,0,0,0,0,0,0,0,0,0,0,2.812,2.8157,2.8062,2.808,2.8081,2.8028,2.8027,2.8027,2.8072,2.8075,2.8077,2.8079,2.8038,2.8034,2.803,2.7956,0,0,2.8018,2.8017,0,0,0,0,0,0,0,0,2.8122,2.8117,2.8078,2.8078,2.808,2.8057,2.8047,2.8003,2.8071,2.8075,2.8078,2.8081,2.8041,2.8037,2.8025,2.7954,2.7952,2.8018,2.8016,2.8014,2.8013,0,0,0,0,0,0,0,2.8125,2.8118,2.8048,2.8077,2.8078,2.8088,2.8085,2.8039,2.8044,2.8075,2.8078,2.8074,2.8042,2.8028,2.8024,2.7952,2.8018,2.8015,2.8012,2.8011,2.7817,2.7815,0,0,0,0,0,0,2.8127,2.812,2.8049,2.8047,2.8108,2.8084,2.8081,2.8062,2.8045,2.8045,2.8072,2.8076,2.8034,2.8029,2.8023,2.7934,2.8014,2.801,2.8008,2.782,2.7817,2.7814,0,0,0,0,0,0,2.8128,2.812,2.8051,2.8085,2.8077,2.8079,2.8058,2.806,2.8047,2.8043,2.8043,2.8058,2.8036,2.8028,2.7973,2.7933,2.8008,2.8005,2.7823,2.7819,2.7815,2.7756,0,0,0,0,0,0,2.8131,2.812,2.8093,2.8084,2.8075,2.8002,2.8056,2.8057,2.804,2.8046,2.8029,2.8029,2.8037,2.7978,2.7969,2.7929,2.8002,2.7827,2.7821,2.7817,2.7761,2.775,2.7741,0,0,0,0,0,2.8134,2.8077,2.8092,2.8083,2.8041,2.8,2.7995,2.8007,2.8037,2.8009,2.8007,2.803,2.7939,2.7972,2.7962,2.792,2.7829,2.7823,2.7817,2.7766,2.7752,2.7741,0,0,0,0,0,0,2.8079,2.8076,2.8092,2.803,2.8016,2.8008,2.7973,2.7993,2.7967,2.7973,2.7988,2.7983,2.7924,2.7917,2.7953,2.7847,2.7889,2.788,2.7854,2.7841,2.7831,2.7833,2.7998,0,0,0,0,0,2.806,2.8029,2.8027,2.7972,2.7964,2.797,2.7952,2.7964,2.7948,2.7941,2.7935,2.7916,2.7884,2.7862,2.7832,2.7761,2.7757,2.7727,2.7717,2.7709,2.7701,2.7661,2.7648,2.7794,2.7794,2.7794,0,0,2.802,2.8014,2.7993,2.7961,2.7951,2.7916,2.7964,2.7926,2.7899,2.7934,2.7882,2.7876,2.7857,2.7793,2.7765,2.7785,2.766,2.7701,2.7694,2.7691,2.7654,2.764,2.7627,2.7789,2.779,2.7791,0,0,2.7928,2.7921,2.7875,2.7864,2.7849,2.7854,2.7842,2.7832,2.7831,2.7779,2.7804,2.7772,2.7716,2.7702,2.7687,2.759,2.761,2.758,2.7526,2.7487,2.7476,2.7466,2.743,2.7417,2.7572,2.7572,2.7572,0,2.7879,2.783,2.7848,2.7808,2.7792,2.7825,2.7777,2.7765,2.774,2.7727,2.7752,2.7683,2.7672,2.7605,2.7581,2.7568,2.7555,2.7581,2.7476,2.7466,2.7457,2.7423,2.741,2.7569,2.7569,2.7569,2.757,0,2.777,2.7736,2.7699,2.7677,2.7657,2.7613,2.7622,2.76,2.7613,2.7614,2.756,2.7549,2.7517,2.7502,2.7513,2.7436,2.7449,2.7475,2.7517,2.7439,2.7408,2.7395,2.7563,2.7565,2.7566,2.7567,0,0,2.7641,2.763,2.7617,2.7607,2.7593,2.7565,2.7522,2.7493,2.7473,2.7455,2.7418,2.737,2.7394,2.7377,2.7387,2.7354,2.7277,2.7383,2.7383,2.7363,2.7189,2.717,2.7154,2.7291,2.7288,2.7286,2.7191,0,2.7549,2.7477,2.7492,2.742,2.7388,2.7419,2.7381,2.7367,2.7367,2.7338,2.7337,2.7303,2.7338,2.7328,2.7296,2.7293,2.7242,2.73,2.7254,2.7252,2.7257,2.7138,2.7117,2.7027,2.7179,2.7176,2.7175,0,2.7432,2.7412,2.7337,2.7329,2.7316,2.7282,2.7257,2.7229,2.7213,2.7216,2.7197,2.7214,2.7169,2.7213,2.715,2.719,2.7172,2.7167,2.7164,2.7159,2.7208,2.7129,2.6999,2.6985,2.7156,2.7157,2.7159,0,2.7345,2.7298,2.7248,2.7239,2.7227,2.7203,2.7196,2.7184,2.7165,2.7143,2.7131,2.7102,2.7086,2.7062,2.707,2.7102,2.7005,2.705,2.7004,2.7003,2.6981,2.6982,2.6845,2.6971,2.6971,2.6972,2.6972,0,2.724,2.7192,2.7209,2.7177,2.7125,2.7142,2.7089,2.7086,2.7075,2.7042,2.7066,2.7035,2.7047,2.7016,2.7021,2.6968,2.6961,2.696,2.6961,2.6957,2.6957,2.6944,2.695,2.6968,2.6969,2.697,2.697,0,2.7132,2.7141,2.7088,2.7083,2.708,2.7042,2.7036,2.7006,2.7009,2.6967,2.6958,2.6961,2.6925,2.6931,2.6891,2.6894,2.6827,2.6837,2.6833,2.6835,2.6788,2.6792,2.6638,2.6618,2.6758,2.6756,2.6755,0,2.7064,2.7029,2.702,2.7002,2.6994,2.6963,2.6945,2.696,2.694,2.692,2.6891,2.6859,2.6833,2.6774,2.6771,2.674,2.6749,2.6697,2.6744,2.6741,2.6747,2.6748,2.6744,2.6687,2.6685,2.6684,2.6683,0,2.6942,2.6948,2.6923,2.6899,2.6877,2.6858,2.6841,2.6824,2.6837,2.6813,2.6778,2.6758,2.6718,2.6684,2.6656,2.6647,2.6666,2.6669,2.6656,2.665,2.6649,2.6648,2.6806,2.6672,2.6673,2.6674,2.6674,2.6675,2.6851,2.6822,2.6811,2.6781,2.6771,2.6755,2.6726,2.6726,2.6698,2.6668,2.6678,2.6638,2.6623,2.6587,2.6575,2.6542,2.6561,2.6543,2.6538,2.6534,2.6528,2.6656,2.6537,2.6537,2.6538,2.6538,2.6538,0,2.673,2.6725,2.6698,2.6674,2.6651,2.6674,2.6656,2.6634,2.66,2.6585,2.656,2.6519,2.6487,2.6482,2.6451,2.6425,2.6433,2.6416,2.6418,2.6415,2.6513,2.6527,2.6411,2.6411,2.6411,2.6411,2.6411,2.6411,2.6663,2.6614,2.6619,2.6564,2.6559,2.6522,2.651,2.6494,2.6483,2.6437,2.6411,2.6409,2.6398,2.6366,2.6337,2.6336,2.6323,2.6303,2.6305,2.6396,2.6408,2.6421,2.6433,2.63,2.63,2.621,2.6209,2.6209]}]]